Location: Marcé
(47.5801°N, 0.3280°W)
Time: 09:16:59
(UTC+01:00)

Tiros 1 despin weight - Pass Details

Date: 10 December 2021
Orbit: 592 x 641 km, 48.2° (Epoch: 25 January)

Event Time Altitude Azimuth Distance (km) Brightness Sun altitude
Rises 12:53:59 0° 248° (WSW) 2,851 ? 19.5°
Reaches altitude 10° 12:56:17 10° 246° (WSW) 1,942 ? 19.5°
Maximum altitude 13:00:43 73° 163° (SSE) 627 ? 19.4°
Drops below altitude 10° 13:05:08 10° 79° (ENE) 1,927 ? 19.4°
Sets 13:07:24 0° 77° (ENE) 2,827 ? 19.4°
